GW4021 Weather Reports


time (UTC)temp
F
wind
direction
speed
knots
gust
knots
rain 1hr
in
rain 24hr
in
rain mn
in
humidity
%
barometer
mb
20260505051514 47 98 0.0 0.0 0.00 0.04 0.04 87 1011.4
20260505041524 48 63 0.0 0.0 0.00 0.04 0.04 87 1011.3
20260505040026 48 63 0.0 0.0 0.00 0.04 0.04 87 1011.2
20260505034524 49 56 0.0 0.9 0.00 0.04 0.04 87 1011.2
20260505033030 49 279 0.0 0.9 0.00 0.04 0.04 87 1011.3
20260505031515 49 273 0.0 0.0 0.00 0.04 0.04 86 1011.0
20260505030012 49 273 0.0 0.0 0.00 0.04 0.04 85 1011.0
20260505024511 49 273 0.0 0.0 0.00 0.04 0.04 85 1010.7
20260505023009 49 273 0.0 0.0 0.01 0.04 0.04 84 1010.6
20260505021528 50 273 0.0 0.9 0.01 0.04 0.04 83 1010.5
20260505020034 50 273 0.0 0.9 0.02 0.04 0.04 82 1010.6
20260505014532 51 271 0.0 0.9 0.02 0.04 0.04 82 1010.7
20260505013027 51 264 0.0 1.7 0.02 0.03 0.03 81 1010.7
20260505011526 52 269 0.0 1.7 0.02 0.03 0.03 79 1010.8
20260505010014 52 313 0.0 1.7 0.01 0.02 0.02 75 1010.4
20260505004512 53 269 0.0 2.6 0.02 0.02 0.02 73 1010.4
20260505003011 54 277 0.9 3.5 0.01 0.01 0.01 69 1010.5
20260505001527 54 275 0.0 1.7 0.01 0.01 0.01 66 1010.1
20260505000030 56 219 0.0 3.5 0.01 0.01 0.01 65 1010.1
20260504234524 59 130 1.7 13.9 0.00 0.00 0.00 50 1010.1
20260504233029 62 255 0.0 1.7 0.00 0.00 0.00 37 1009.7
20260504231519 63 279 0.9 3.5 0.00 0.00 0.00 35 1009.1
20260504230024 64 26 0.9 5.2 0.00 0.00 0.00 35 1008.6
20260504224517 66 12 0.9 4.3 0.00 0.00 0.00 33 1008.3
20260504223015 67 323 2.6 7.0 0.00 0.00 0.00 33 1008.4
20260504221508 67 310 1.7 6.1 0.00 0.00 0.00 37 1008.5
20260504220026 65 296 1.7 7.0 0.00 0.00 0.00 37 1008.8
20260504214524 62 314 3.5 7.8 0.00 0.00 0.00 36 1009.0
20260504213028 62 275 0.0 6.1 0.00 0.00 0.00 37 1009.1
20260504211533 64 290 2.6 11.3 0.00 0.00 0.00 35 1009.1
20260504210024 66 348 3.5 11.3 0.00 0.00 0.00 33 1009.0
20260504204529 64 321 1.7 9.6 0.00 0.00 0.00 35 1008.9
20260504203023 63 360 4.3 14.8 0.00 0.00 0.00 34 1008.7
20260504201516 64 34 7.0 13.9 0.00 0.00 0.00 33 1008.9
20260504200010 64 254 4.3 10.4 0.00 0.00 0.00 30 1009.3
20260504194524 65 333 1.7 7.8 0.00 0.00 0.00 30 1008.8
20260504193026 67 71 3.5 13.0 0.00 0.00 0.00 27 1008.5
20260504191526 68 5 1.7 10.4 0.00 0.00 0.00 25 1008.3
20260504190019 70 98 0.9 6.1 0.00 0.00 0.00 23 1007.9
20260504184523 71 256 3.5 7.8 0.00 0.00 0.00 22 1007.8
20260504183015 72 311 0.9 7.8 0.00 0.00 0.00 22 1007.8
20260504181514 72 292 1.7 8.7 0.00 0.00 0.00 24 1007.8
20260504180010 72 268 2.6 7.8 0.00 0.00 0.00 24 1007.8
20260504174527 72 284 1.7 6.1 0.00 0.00 0.00 24 1008.0
20260504173026 72 234 1.7 5.2 0.00 0.00 0.00 23 1008.1
20260504171524 72 240 0.0 5.2 0.00 0.00 0.00 23 1008.3
20260504081503 47 339 0.0 0.9 0.00 0.00 0.00 52 1010.4